NOAA 16 DEB, 42367

Orbit data source: Space-Track

NOAA 16 DEB, 42367 is space debris in SSO originally from a launch on Thu, 21 Sep 2000 UTC launched from the Air Force Western Test Range (AFWTR). Debris objects in space refer to the collection of defunct objects orbiting the Earth. Examples of debris include non-operational satellites, rocket bodies, and fragments generated from explosions, collisions, or faulty payload assembly.

Loading next visibility...
Identifier
42367, 2000-055RK
Orbit
SSO
Country
Flag of USUS
Related business
Manufacturer
Unknown
Mission
Spacecraft
Bus & Motor
Unknown
Mass
Unknown
Launch date (UTC)
2000-09-21 (26 years ago)
Launch vehicle
Unknown
Launch site
Air Force Western Test Range (AFWTR)
Object type
Payload
Rocket body
Debris
Shape & HBR
Unknown shape, 0.1 m
Radar Cross Section
Medium (>0.1 m² and <1 m²)

Expand to show TLE details & history
Last TLE update: 22 hours ago

TLE from 22 hours ago
0 NOAA 16 DEB
1 42367U 00055RK  26264.17414043  .00010230  00000-0  22879-2 0  9992
2 42367  98.8865  38.4814 0016953 158.4273 201.7641 14.56830793541423
Epoch: 2026-09-21T04:10Z
TLE epoch observation values (Epoch: 2026-09-21T04:10:45.733Z)
Latitude
-0°
Longitude
-24.26691°
Altitude
717.539 km
Speed
7.491 km/s
True Right ascension
02h 33m 55s
True Declination
0° 00' 00"
Sunlit
Object was in full shadow at epoch
Visualization orbit readout
Latitude
Unknown
Longitude
Unknown
Altitude
Unknown
Speed
Unknown
Apparent Right ascension
Unknown
Apparent Declination
Unknown
Sunlit
N/A
Visualization observer readout
Local Sidereal Time
19:16:49
Azimuth
Unknown
Elevation
Unknown
Doppler factor
Unknown
Orbital elements
Apogee altitude
712.544 km
Perigee altitude
688.543 km
Semi-major axis
7,078.681 km
Eccentricity
0.0017
Inclination
98.8865°
RAAN
38.4814°
Arg. of periapsis
158.4273°
True anomaly
201.69221°
Mean anomaly
201.7641°
Eccentric anomaly
201.72814°
Mean motion
3.6443 °/min
Orbital period
98.78 mins
BSTAR
0.0022879
Loading maneuver chart data...
Computing Atmospheric mass density...

Documentation

Showing up to 5 results
|